Flag for Germany Weather past 2 weeks in Bochum, North Rhine-Westphalia, Germany

Now
36 °F

Passing clouds.


Feels Like: 32 °F
Forecast: 35 / 46 °F
Wind: 5 mph from Southwest

Location: Duesseldorf

Current Time: Mar 4, 2015 at 4:50:15 AM

Latest Report: Mar 4, 2015 at 3:00 AM


Visibility: 25 mi

Pressure: 30.15 "Hg

Humidity: 84%

Dew point: 32 °F

Location of BochumLocation

Historic Weather in Bochum — Graph

°F

Bochum temperature yesterday

Maximum temperature yesterday: 48 °F (at 2:00 PM)
Minimum temperature yesterday: 36 °F (at 3:00 AM)
Average temperature yesterday: 40 °F

Past Weeks' High & Low Weather Summary

 TemperatureHumidityPressure
High52 °F (Mar 1, 1:00 PM)100% (Feb 18, 7:00 AM)30.78 "Hg (Feb 18, 7:00 AM)
Low28 °F (Feb 28, 5:00 AM)47% (Mar 2, 2:00 PM)29.35 "Hg (Feb 21, 5:00 AM)
Average40 °F82%29.95 "Hg
* Reported Feb 17 3:00 AM — Mar 4 3:00 AM, Bochum, Weather by CustomWeather, © 2015

Note: Actual official high and low records may vary slightly from our data, if they occured in-between our weather recording intervals... More about our weather records

Advertising

Bochum weather history for previous 24 hours

 ConditionsComfort  
Time TempWeatherWind HumidityBarometerVisibility
3:00 AM
Wed, Mar 4
36 °FPassing clouds.5 mph84%30.15 "Hg25 mi
2:00 AM37 °FClear.3 mph86%30.13 "Hg22 mi
1:00 AM37 °FPassing clouds.6 mph86%30.11 "Hg25 mi
12:00 AM38 °FThunderstorms. Passing clouds.5 mph83%30.10 "Hg22 mi
11:00 PM
Tue, Mar 3
38 °FPassing clouds.5 mph83%30.08 "Hg28 mi
9:00 PM40 °FOvercast.5 mph86%30.05 "Hg25 mi
8:00 PM40 °FPassing clouds.5 mph88%30.03 "Hg25 mi
7:00 PM40 °FOvercast.5 mph87%30.01 "Hg25 mi
6:00 PM40 °FThunderstorms. Partly sunny.6 mph88%29.99 "Hg19 mi
5:00 PM37 °FThundershowers. Overcast.8 mph94%30.01 "Hg4 mi
3:00 PM45 °FSprinkles. Overcast.15 mph70%29.99 "Hg19 mi
2:00 PM48 °FOvercast.13 mph53%29.98 "Hg31 mi
1:00 PM46 °FOvercast.10 mph57%30.01 "Hg31 mi
12:00 PM46 °FOvercast.10 mph62%30.04 "Hg31 mi
11:00 AM43 °FOvercast.8 mph70%30.06 "Hg34 mi
10:00 AM42 °FOvercast.7 mph74%30.07 "Hg25 mi
9:00 AM40 °FOvercast.7 mph79%30.07 "Hg25 mi
8:00 AM38 °FScattered clouds.7 mph81%30.07 "Hg19 mi
7:00 AM36 °FPassing clouds.7 mph84%30.06 "Hg19 mi
6:00 AM38 °FPassing clouds.7 mph82%30.06 "Hg19 mi
5:00 AM37 °FPassing clouds.7 mph83%30.05 "Hg19 mi
Weather by CustomWeather, © 2015

See weather overviewHow to use our weather pages